Year,Month,Day,Hour,Minute,Value (Times are PST for temperature in C)
2013,05,25,00,00,9.30
2013,05,25,00,01,9.30
2013,05,25,00,02,9.20
2013,05,25,00,03,9.20
2013,05,25,00,04,9.20
2013,05,25,00,05,9.20
2013,05,25,00,06,9.20
2013,05,25,00,07,9.20
2013,05,25,00,08,9.20
2013,05,25,00,09,9.20
2013,05,25,00,10,9.20
2013,05,25,00,11,9.20
2013,05,25,00,12,9.20
2013,05,25,00,13,9.10
2013,05,25,00,14,9.10
2013,05,25,00,15,9.10
2013,05,25,00,16,9.10
2013,05,25,00,17,9.00
2013,05,25,00,18,9.00
2013,05,25,00,19,9.00
2013,05,25,00,20,9.00
2013,05,25,00,21,9.00
2013,05,25,00,22,9.10
2013,05,25,00,23,9.10
2013,05,25,00,24,9.10
2013,05,25,00,25,9.10
2013,05,25,00,26,9.00
2013,05,25,00,27,9.00
2013,05,25,00,28,9.00
2013,05,25,00,29,8.90
2013,05,25,00,30,8.90
2013,05,25,00,31,8.90
2013,05,25,00,32,8.80
2013,05,25,00,33,8.80
2013,05,25,00,34,8.80
2013,05,25,00,35,8.80
2013,05,25,00,36,8.80
2013,05,25,00,37,8.80
2013,05,25,00,38,8.80
2013,05,25,00,39,8.80
2013,05,25,00,40,8.80
2013,05,25,00,41,8.80
2013,05,25,00,42,8.70
2013,05,25,00,43,8.70
2013,05,25,00,44,8.70
2013,05,25,00,45,8.70
2013,05,25,00,46,8.70
2013,05,25,00,47,8.70
2013,05,25,00,48,8.70
2013,05,25,00,49,8.70
2013,05,25,00,50,8.70
2013,05,25,00,51,8.60
2013,05,25,00,52,8.60
2013,05,25,00,53,8.60
2013,05,25,00,54,8.60
2013,05,25,00,55,8.60
2013,05,25,00,56,8.70
2013,05,25,00,57,8.70
2013,05,25,00,58,8.60
2013,05,25,00,59,8.60
2013,05,25,01,00,8.60
2013,05,25,01,01,8.60
2013,05,25,01,02,8.60
2013,05,25,01,03,8.60
2013,05,25,01,04,8.50
2013,05,25,01,05,8.50
2013,05,25,01,06,8.50
2013,05,25,01,07,8.40
2013,05,25,01,08,8.40
2013,05,25,01,09,8.40
2013,05,25,01,10,8.40
2013,05,25,01,11,8.40
2013,05,25,01,12,8.30
2013,05,25,01,13,8.30
2013,05,25,01,14,8.30
2013,05,25,01,15,8.30
2013,05,25,01,16,8.30
2013,05,25,01,17,8.30
2013,05,25,01,18,8.20
2013,05,25,01,19,8.20
2013,05,25,01,20,8.20
2013,05,25,01,21,8.20
2013,05,25,01,22,8.20
2013,05,25,01,23,8.20
2013,05,25,01,24,8.10
2013,05,25,01,25,8.10
2013,05,25,01,26,8.10
2013,05,25,01,27,8.10
2013,05,25,01,28,8.10
2013,05,25,01,29,8.10
2013,05,25,01,30,8.10
2013,05,25,01,31,8.10
2013,05,25,01,32,8.10
2013,05,25,01,33,8.10
2013,05,25,01,34,8.10
2013,05,25,01,35,8.10
2013,05,25,01,36,8.10
2013,05,25,01,37,8.10
2013,05,25,01,38,8.10
2013,05,25,01,39,8.10
2013,05,25,01,40,8.10
2013,05,25,01,41,8.10
2013,05,25,01,42,8.10
2013,05,25,01,43,8.00
2013,05,25,01,44,8.00
2013,05,25,01,45,8.00
2013,05,25,01,46,7.90
2013,05,25,01,47,7.90
2013,05,25,01,48,7.90
2013,05,25,01,49,7.90
2013,05,25,01,50,7.90
2013,05,25,01,51,7.90
2013,05,25,01,52,7.90
2013,05,25,01,53,7.90
2013,05,25,01,54,7.90
2013,05,25,01,55,7.90
2013,05,25,01,56,7.80
2013,05,25,01,57,7.80
2013,05,25,01,58,7.80
2013,05,25,01,59,7.80
2013,05,25,02,00,7.80
2013,05,25,02,01,7.80
2013,05,25,02,02,7.80
2013,05,25,02,03,7.80
2013,05,25,02,04,7.80
2013,05,25,02,05,7.80
2013,05,25,02,06,7.70
2013,05,25,02,07,7.70
2013,05,25,02,08,7.70
2013,05,25,02,09,7.70
2013,05,25,02,10,7.80
2013,05,25,02,11,7.80
2013,05,25,02,12,7.80
2013,05,25,02,13,7.80
2013,05,25,02,14,7.80
2013,05,25,02,15,7.80
2013,05,25,02,16,7.80
2013,05,25,02,17,7.80
2013,05,25,02,18,7.80
2013,05,25,02,19,7.80
2013,05,25,02,20,7.80
2013,05,25,02,21,7.80
2013,05,25,02,22,7.80
2013,05,25,02,23,7.80
2013,05,25,02,24,7.80
2013,05,25,02,25,7.80
2013,05,25,02,26,7.80
2013,05,25,02,27,7.80
2013,05,25,02,28,7.70
2013,05,25,02,29,7.70
2013,05,25,02,30,7.70
2013,05,25,02,31,7.60
2013,05,25,02,32,7.60
2013,05,25,02,33,7.50
2013,05,25,02,34,7.50
2013,05,25,02,35,7.40
2013,05,25,02,36,7.40
2013,05,25,02,37,7.40
2013,05,25,02,38,7.40
2013,05,25,02,39,7.30
2013,05,25,02,40,7.30
2013,05,25,02,41,7.30
2013,05,25,02,42,7.30
2013,05,25,02,43,7.30
2013,05,25,02,44,7.30
2013,05,25,02,45,7.30
2013,05,25,02,46,7.30
2013,05,25,02,47,7.30
2013,05,25,02,48,7.30
2013,05,25,02,49,7.30
2013,05,25,02,50,7.40
2013,05,25,02,51,7.40
2013,05,25,02,52,7.40
2013,05,25,02,53,7.40
2013,05,25,02,54,7.40
2013,05,25,02,55,7.40
2013,05,25,02,56,7.40
2013,05,25,02,57,7.40
2013,05,25,02,58,7.40
2013,05,25,02,59,7.30
2013,05,25,03,00,7.30
2013,05,25,03,01,7.30
2013,05,25,03,02,7.30
2013,05,25,03,03,7.30
2013,05,25,03,04,7.20
2013,05,25,03,05,7.20
2013,05,25,03,06,7.20
2013,05,25,03,07,7.20
2013,05,25,03,08,7.20
2013,05,25,03,09,7.10
2013,05,25,03,10,7.10
2013,05,25,03,11,7.10
2013,05,25,03,12,7.10
2013,05,25,03,13,7.00
2013,05,25,03,14,7.00
2013,05,25,03,15,7.00
2013,05,25,03,16,6.90
2013,05,25,03,17,6.90
2013,05,25,03,18,6.90
2013,05,25,03,19,6.80
2013,05,25,03,20,6.80
2013,05,25,03,21,6.80
2013,05,25,03,22,6.80
2013,05,25,03,23,6.70
2013,05,25,03,24,6.70
2013,05,25,03,25,6.70
2013,05,25,03,26,6.70
2013,05,25,03,27,6.60
2013,05,25,03,28,6.60
2013,05,25,03,29,6.60
2013,05,25,03,30,6.60
2013,05,25,03,31,6.50
2013,05,25,03,32,6.50
2013,05,25,03,33,6.50
2013,05,25,03,34,6.50
2013,05,25,03,35,6.50
2013,05,25,03,36,6.50
2013,05,25,03,37,6.50
2013,05,25,03,38,6.50
2013,05,25,03,39,6.50
2013,05,25,03,40,6.40
2013,05,25,03,41,6.40
2013,05,25,03,42,6.40
2013,05,25,03,43,6.40
2013,05,25,03,44,6.40
2013,05,25,03,45,6.40
2013,05,25,03,46,6.40
2013,05,25,03,47,6.30
2013,05,25,03,48,6.30
2013,05,25,03,49,6.30
2013,05,25,03,50,6.30
2013,05,25,03,51,6.30
2013,05,25,03,52,6.30
2013,05,25,03,53,6.30
2013,05,25,03,54,6.20
2013,05,25,03,55,6.20
2013,05,25,03,56,6.20
2013,05,25,03,57,6.20
2013,05,25,03,58,6.20
2013,05,25,03,59,6.20
2013,05,25,04,00,6.20
2013,05,25,04,01,6.20
2013,05,25,04,02,6.20
2013,05,25,04,03,6.20
2013,05,25,04,04,6.20
2013,05,25,04,05,6.10
2013,05,25,04,06,6.10
2013,05,25,04,07,6.10
2013,05,25,04,08,6.10
2013,05,25,04,09,6.10
2013,05,25,04,10,6.10
2013,05,25,04,11,6.10
2013,05,25,04,12,6.00
2013,05,25,04,13,6.00
2013,05,25,04,14,6.00
2013,05,25,04,15,5.90
2013,05,25,04,16,5.90
2013,05,25,04,17,5.90
2013,05,25,04,18,5.90
2013,05,25,04,19,5.90
2013,05,25,04,20,5.90
2013,05,25,04,21,5.90
2013,05,25,04,22,5.90
2013,05,25,04,23,5.90
2013,05,25,04,24,5.80
2013,05,25,04,25,5.80
2013,05,25,04,26,5.80
2013,05,25,04,27,5.80
2013,05,25,04,28,5.80
2013,05,25,04,29,5.80
2013,05,25,04,30,5.80
2013,05,25,04,31,5.80
2013,05,25,04,32,5.80
2013,05,25,04,33,5.70
2013,05,25,04,34,5.70
2013,05,25,04,35,5.70
2013,05,25,04,36,5.70
2013,05,25,04,37,5.70
2013,05,25,04,38,5.70
2013,05,25,04,39,5.70
2013,05,25,04,40,5.70
2013,05,25,04,41,5.70
2013,05,25,04,42,5.60
2013,05,25,04,43,5.60
2013,05,25,04,44,5.60
2013,05,25,04,45,5.60
2013,05,25,04,46,5.60
2013,05,25,04,47,5.60
2013,05,25,04,48,5.50
2013,05,25,04,49,5.50
2013,05,25,04,50,5.50
2013,05,25,04,51,5.50
2013,05,25,04,52,5.50
2013,05,25,04,53,5.50
2013,05,25,04,54,5.50
2013,05,25,04,55,5.50
2013,05,25,04,56,5.50
2013,05,25,04,57,5.50
2013,05,25,04,58,5.40
2013,05,25,04,59,5.40
2013,05,25,05,00,5.40
2013,05,25,05,01,5.40
2013,05,25,05,02,5.40
2013,05,25,05,03,5.40
2013,05,25,05,04,5.40
2013,05,25,05,05,5.40
2013,05,25,05,06,5.40
2013,05,25,05,07,5.40
2013,05,25,05,08,5.40
2013,05,25,05,09,5.40
2013,05,25,05,10,5.40
2013,05,25,05,11,5.40
2013,05,25,05,12,5.40
2013,05,25,05,13,5.40
2013,05,25,05,14,5.40
2013,05,25,05,15,5.40
2013,05,25,05,16,5.40
2013,05,25,05,17,5.40
2013,05,25,05,18,5.40
2013,05,25,05,19,5.40
2013,05,25,05,20,5.40
2013,05,25,05,21,5.40
2013,05,25,05,22,5.40
2013,05,25,05,23,5.30
2013,05,25,05,24,5.30
2013,05,25,05,25,5.30
2013,05,25,05,26,5.30
2013,05,25,05,27,5.30
2013,05,25,05,28,5.30
2013,05,25,05,29,5.30
2013,05,25,05,30,5.30
2013,05,25,05,31,5.30
2013,05,25,05,32,5.30
2013,05,25,05,33,5.40
2013,05,25,05,34,5.40
2013,05,25,05,35,5.40
2013,05,25,05,36,5.40
2013,05,25,05,37,5.40
2013,05,25,05,38,5.40
2013,05,25,05,39,5.30
2013,05,25,05,40,5.30
2013,05,25,05,41,5.30
2013,05,25,05,42,5.30
2013,05,25,05,43,5.30
2013,05,25,05,44,5.30
2013,05,25,05,45,5.30
2013,05,25,05,46,5.30
2013,05,25,05,47,5.30
2013,05,25,05,48,5.30
2013,05,25,05,49,5.30
2013,05,25,05,50,5.30
2013,05,25,05,51,5.30
2013,05,25,05,52,5.30
2013,05,25,05,53,5.30
2013,05,25,05,54,5.30
2013,05,25,05,55,5.30
2013,05,25,05,56,5.30
2013,05,25,05,57,5.30
2013,05,25,05,58,5.30
2013,05,25,05,59,5.30
2013,05,25,06,00,5.40
2013,05,25,06,01,5.40
2013,05,25,06,02,5.40
2013,05,25,06,03,5.40
2013,05,25,06,04,5.40
2013,05,25,06,05,5.40
2013,05,25,06,06,5.40
2013,05,25,06,07,5.40
2013,05,25,06,08,5.40
2013,05,25,06,09,5.40
2013,05,25,06,10,5.40
2013,05,25,06,11,5.40
2013,05,25,06,12,5.40
2013,05,25,06,13,5.40
2013,05,25,06,14,5.40
2013,05,25,06,15,5.40
2013,05,25,06,16,5.40
2013,05,25,06,17,5.50
2013,05,25,06,18,5.50
2013,05,25,06,19,5.50
2013,05,25,06,20,5.50
2013,05,25,06,21,5.50
2013,05,25,06,22,5.50
2013,05,25,06,23,5.60
2013,05,25,06,24,5.60
2013,05,25,06,25,5.60
2013,05,25,06,26,5.60
2013,05,25,06,27,5.70
2013,05,25,06,28,5.70
2013,05,25,06,29,5.70
2013,05,25,06,30,5.70
2013,05,25,06,31,5.70
2013,05,25,06,32,5.80
2013,05,25,06,33,5.80
2013,05,25,06,34,5.80
2013,05,25,06,35,5.80
2013,05,25,06,36,5.80
2013,05,25,06,37,5.80
2013,05,25,06,38,5.90
2013,05,25,06,39,5.90
2013,05,25,06,40,5.90
2013,05,25,06,41,6.00
2013,05,25,06,42,6.00
2013,05,25,06,43,6.00
2013,05,25,06,44,6.10
2013,05,25,06,45,6.10
2013,05,25,06,46,6.10
2013,05,25,06,47,6.10
2013,05,25,06,48,6.20
2013,05,25,06,49,6.20
2013,05,25,06,50,6.20
2013,05,25,06,51,6.20
2013,05,25,06,52,6.20
2013,05,25,06,53,6.30
2013,05,25,06,54,6.30
2013,05,25,06,55,6.40
2013,05,25,06,56,6.40
2013,05,25,06,57,6.40
2013,05,25,06,58,6.50
2013,05,25,06,59,6.50
2013,05,25,07,00,6.60
2013,05,25,07,01,6.60
2013,05,25,07,02,6.70
2013,05,25,07,03,6.70
2013,05,25,07,04,6.70
2013,05,25,07,05,6.80
2013,05,25,07,06,6.80
2013,05,25,07,07,6.80
2013,05,25,07,08,6.80
2013,05,25,07,09,6.80
2013,05,25,07,10,6.90
2013,05,25,07,11,6.90
2013,05,25,07,12,7.00
2013,05,25,07,13,7.00
2013,05,25,07,14,7.10
2013,05,25,07,15,7.10
2013,05,25,07,16,7.10
2013,05,25,07,17,7.20
2013,05,25,07,18,7.20
2013,05,25,07,19,7.20
2013,05,25,07,20,7.20
2013,05,25,07,21,7.30
2013,05,25,07,22,7.30
2013,05,25,07,23,7.30
2013,05,25,07,24,7.30
2013,05,25,07,25,7.40
2013,05,25,07,26,7.40
2013,05,25,07,27,7.40
2013,05,25,07,28,7.50
2013,05,25,07,29,7.50
2013,05,25,07,30,7.60
2013,05,25,07,31,7.60
2013,05,25,07,32,7.60
2013,05,25,07,33,7.70
2013,05,25,07,34,7.70
2013,05,25,07,35,7.70
2013,05,25,07,36,7.80
2013,05,25,07,37,7.80
2013,05,25,07,38,7.80
2013,05,25,07,39,7.90
2013,05,25,07,40,7.90
2013,05,25,07,41,7.90
2013,05,25,07,42,7.90
2013,05,25,07,43,8.00
2013,05,25,07,44,8.00
2013,05,25,07,45,8.00
2013,05,25,07,46,8.10
2013,05,25,07,47,8.10
2013,05,25,07,48,8.10
2013,05,25,07,49,8.10
2013,05,25,07,50,8.10
2013,05,25,07,51,8.10
2013,05,25,07,52,8.10
2013,05,25,07,53,8.10
2013,05,25,07,54,8.20
2013,05,25,07,55,8.20
2013,05,25,07,56,8.20
2013,05,25,07,57,8.20
2013,05,25,07,58,8.20
2013,05,25,07,59,8.20
2013,05,25,08,00,8.20
2013,05,25,08,01,8.20
2013,05,25,08,02,8.30
2013,05,25,08,03,8.30
2013,05,25,08,04,8.30
2013,05,25,08,05,8.30
2013,05,25,08,06,8.30
2013,05,25,08,07,8.30
2013,05,25,08,08,8.30
2013,05,25,08,09,8.30
2013,05,25,08,10,8.30
2013,05,25,08,11,8.40
2013,05,25,08,12,8.40
2013,05,25,08,13,8.40
2013,05,25,08,14,8.50
2013,05,25,08,15,8.50
2013,05,25,08,16,8.60
2013,05,25,08,17,8.60
2013,05,25,08,18,8.60
2013,05,25,08,19,8.70
2013,05,25,08,20,8.70
2013,05,25,08,21,8.70
2013,05,25,08,22,8.70
2013,05,25,08,23,8.80
2013,05,25,08,24,8.80
2013,05,25,08,25,8.80
2013,05,25,08,26,8.80
2013,05,25,08,27,8.90
2013,05,25,08,28,8.90
2013,05,25,08,29,8.90
2013,05,25,08,30,8.90
2013,05,25,08,31,8.90
2013,05,25,08,32,8.90
2013,05,25,08,33,9.00
2013,05,25,08,34,9.00
2013,05,25,08,35,9.10
2013,05,25,08,36,9.10
2013,05,25,08,37,9.20
2013,05,25,08,38,9.20
2013,05,25,08,39,9.20
2013,05,25,08,40,9.30
2013,05,25,08,41,9.30
2013,05,25,08,42,9.30
2013,05,25,08,43,9.40
2013,05,25,08,44,9.40
2013,05,25,08,45,9.40
2013,05,25,08,46,9.40
2013,05,25,08,47,9.50
2013,05,25,08,48,9.50
2013,05,25,08,49,9.60
2013,05,25,08,50,9.60
2013,05,25,08,51,9.70
2013,05,25,08,52,9.70
2013,05,25,08,53,9.80
2013,05,25,08,54,9.90
2013,05,25,08,55,9.90
2013,05,25,08,56,10.00
2013,05,25,08,57,10.10
2013,05,25,08,58,10.20
2013,05,25,08,59,10.20
2013,05,25,09,00,10.20
2013,05,25,09,01,10.20
2013,05,25,09,02,10.20
2013,05,25,09,03,10.20
2013,05,25,09,04,10.30
2013,05,25,09,05,10.30
2013,05,25,09,06,10.40
2013,05,25,09,07,10.50
2013,05,25,09,08,10.50
2013,05,25,09,09,10.60
2013,05,25,09,10,10.60
2013,05,25,09,11,10.60
2013,05,25,09,12,10.60
2013,05,25,09,13,10.60
2013,05,25,09,14,10.60
2013,05,25,09,15,10.60
2013,05,25,09,16,10.70
2013,05,25,09,17,10.70
2013,05,25,09,18,10.70
2013,05,25,09,19,10.80
2013,05,25,09,20,10.80
2013,05,25,09,21,10.80
2013,05,25,09,22,10.90
2013,05,25,09,23,10.90
2013,05,25,09,24,11.00
2013,05,25,09,25,11.10
2013,05,25,09,26,11.10
2013,05,25,09,27,11.20
2013,05,25,09,28,11.20
2013,05,25,09,29,11.30
2013,05,25,09,30,11.30
2013,05,25,09,31,11.30
2013,05,25,09,32,11.30
2013,05,25,09,33,11.40
2013,05,25,09,34,11.50
2013,05,25,09,35,11.60
2013,05,25,09,36,11.70
2013,05,25,09,37,11.80
2013,05,25,09,38,11.90
2013,05,25,09,39,11.90
2013,05,25,09,40,12.00
2013,05,25,09,41,12.00
2013,05,25,09,42,12.00
2013,05,25,09,43,12.00
2013,05,25,09,44,12.00
2013,05,25,09,45,12.00
2013,05,25,09,46,11.90
2013,05,25,09,47,12.00
2013,05,25,09,48,12.00
2013,05,25,09,49,12.10
2013,05,25,09,50,12.10
2013,05,25,09,51,12.10
2013,05,25,09,52,12.10
2013,05,25,09,53,12.10
2013,05,25,09,54,12.10
2013,05,25,09,55,12.00
2013,05,25,09,56,12.00
2013,05,25,09,57,11.90
2013,05,25,09,58,11.90
2013,05,25,09,59,11.90
2013,05,25,10,00,11.90
2013,05,25,10,01,12.00
2013,05,25,10,02,12.00
2013,05,25,10,03,12.10
2013,05,25,10,04,12.10
2013,05,25,10,05,12.20
2013,05,25,10,06,12.20
2013,05,25,10,07,12.30
2013,05,25,10,08,12.30
2013,05,25,10,09,12.30
2013,05,25,10,10,12.30
2013,05,25,10,11,12.30
2013,05,25,10,12,12.30
2013,05,25,10,13,12.30
2013,05,25,10,14,12.30
2013,05,25,10,15,12.30
2013,05,25,10,16,12.30
2013,05,25,10,17,12.30
2013,05,25,10,18,12.30
2013,05,25,10,19,12.30
2013,05,25,10,20,12.30
2013,05,25,10,21,12.40
2013,05,25,10,22,12.40
2013,05,25,10,23,12.40
2013,05,25,10,24,12.40
2013,05,25,10,25,12.40
2013,05,25,10,26,12.50
2013,05,25,10,27,12.50
2013,05,25,10,28,12.50
2013,05,25,10,29,12.40
2013,05,25,10,30,12.40
2013,05,25,10,31,12.30
2013,05,25,10,32,12.30
2013,05,25,10,33,12.30
2013,05,25,10,34,12.30
2013,05,25,10,35,12.30
2013,05,25,10,36,12.30
2013,05,25,10,37,12.30
2013,05,25,10,38,12.30
2013,05,25,10,39,12.30
2013,05,25,10,40,12.30
2013,05,25,10,41,12.30
2013,05,25,10,42,12.30
2013,05,25,10,43,12.30
2013,05,25,10,44,12.30
2013,05,25,10,45,12.30
2013,05,25,10,46,12.30
2013,05,25,10,47,12.30
2013,05,25,10,48,12.20
2013,05,25,10,49,12.20
2013,05,25,10,50,12.20
2013,05,25,10,51,12.20
2013,05,25,10,52,12.20
2013,05,25,10,53,12.20
2013,05,25,10,54,12.20
2013,05,25,10,55,12.20
2013,05,25,10,56,12.20
2013,05,25,10,57,12.20
2013,05,25,10,58,12.30
2013,05,25,10,59,12.30
2013,05,25,11,00,12.30
2013,05,25,11,01,12.30
2013,05,25,11,02,12.40
2013,05,25,11,03,12.40
2013,05,25,11,04,12.40
2013,05,25,11,05,12.40
2013,05,25,11,06,12.40
2013,05,25,11,07,12.50
2013,05,25,11,08,12.50
2013,05,25,11,09,12.50
2013,05,25,11,10,12.50
2013,05,25,11,11,12.60
2013,05,25,11,12,12.60
2013,05,25,11,13,12.60
2013,05,25,11,14,12.60
2013,05,25,11,15,12.60
2013,05,25,11,16,12.60
2013,05,25,11,17,12.70
2013,05,25,11,18,12.70
2013,05,25,11,19,12.80
2013,05,25,11,20,12.80
2013,05,25,11,21,12.80
2013,05,25,11,22,12.80
2013,05,25,11,23,12.80
2013,05,25,11,24,12.80
2013,05,25,11,25,12.70
2013,05,25,11,26,12.70
2013,05,25,11,27,12.70
2013,05,25,11,28,12.70
2013,05,25,11,29,12.80
2013,05,25,11,30,12.90
2013,05,25,11,31,12.90
2013,05,25,11,32,13.00
2013,05,25,11,33,13.00
2013,05,25,11,34,12.90
2013,05,25,11,35,12.90
2013,05,25,11,36,12.90
2013,05,25,11,37,12.80
2013,05,25,11,38,12.80
2013,05,25,11,39,12.80
2013,05,25,11,40,12.80
2013,05,25,11,41,12.90
2013,05,25,11,42,12.90
2013,05,25,11,43,12.90
2013,05,25,11,44,13.00
2013,05,25,11,45,13.00
2013,05,25,11,46,13.00
2013,05,25,11,47,12.90
2013,05,25,11,48,12.90
2013,05,25,11,49,12.90
2013,05,25,11,50,12.90
2013,05,25,11,51,12.80
2013,05,25,11,52,12.80
2013,05,25,11,53,12.80
2013,05,25,11,54,12.70
2013,05,25,11,55,12.70
2013,05,25,11,56,12.70
2013,05,25,11,57,12.60
2013,05,25,11,58,12.60
2013,05,25,11,59,12.60
2013,05,25,12,00,12.60
2013,05,25,12,01,12.60
2013,05,25,12,02,12.60
2013,05,25,12,03,12.60
2013,05,25,12,04,12.70
2013,05,25,12,05,12.70
2013,05,25,12,06,12.70
2013,05,25,12,07,12.70
2013,05,25,12,08,12.70
2013,05,25,12,09,12.60
2013,05,25,12,10,12.60
2013,05,25,12,11,12.60
2013,05,25,12,12,12.60
2013,05,25,12,13,12.70
2013,05,25,12,14,12.70
2013,05,25,12,15,12.80
2013,05,25,12,16,12.80
2013,05,25,12,17,12.90
2013,05,25,12,18,12.90
2013,05,25,12,19,12.90
2013,05,25,12,20,12.90
2013,05,25,12,21,12.90
2013,05,25,12,22,12.90
2013,05,25,12,23,12.90
2013,05,25,12,24,12.90
2013,05,25,12,25,12.90
2013,05,25,12,26,12.90
2013,05,25,12,27,12.90
2013,05,25,12,28,12.90
2013,05,25,12,29,12.90
2013,05,25,12,30,12.80
2013,05,25,12,31,12.80
2013,05,25,12,32,12.80
2013,05,25,12,33,12.80
2013,05,25,12,34,12.80
2013,05,25,12,35,12.80
2013,05,25,12,36,12.80
2013,05,25,12,37,12.80
2013,05,25,12,38,12.90
2013,05,25,12,39,12.90
2013,05,25,12,40,12.90
2013,05,25,12,41,12.90
2013,05,25,12,42,12.90
2013,05,25,12,43,12.80
2013,05,25,12,44,12.80
2013,05,25,12,45,12.80
2013,05,25,12,46,12.90
2013,05,25,12,47,12.80
2013,05,25,12,48,12.90
2013,05,25,12,49,12.90
2013,05,25,12,50,12.90
2013,05,25,12,51,13.00
2013,05,25,12,52,13.00
2013,05,25,12,53,13.10
2013,05,25,12,54,13.10
2013,05,25,12,55,13.10
2013,05,25,12,56,13.10
2013,05,25,12,57,13.20
2013,05,25,12,58,13.20
2013,05,25,12,59,13.30
2013,05,25,13,00,13.30
2013,05,25,13,01,13.30
2013,05,25,13,02,13.40
2013,05,25,13,03,13.50
2013,05,25,13,04,13.50
2013,05,25,13,05,13.60
2013,05,25,13,06,13.70
2013,05,25,13,07,13.70
2013,05,25,13,08,13.80
2013,05,25,13,09,13.70
2013,05,25,13,10,13.70
2013,05,25,13,11,13.70
2013,05,25,13,12,13.70
2013,05,25,13,13,13.70
2013,05,25,13,14,13.70
2013,05,25,13,15,13.80
2013,05,25,13,16,13.80
2013,05,25,13,17,13.90
2013,05,25,13,18,14.00
2013,05,25,13,19,14.00
2013,05,25,13,20,14.10
2013,05,25,13,21,14.20
2013,05,25,13,22,14.20
2013,05,25,13,23,14.30
2013,05,25,13,24,14.30
2013,05,25,13,25,14.40
2013,05,25,13,26,14.40
2013,05,25,13,27,14.50
2013,05,25,13,28,14.50
2013,05,25,13,29,14.60
2013,05,25,13,30,14.60
2013,05,25,13,31,14.60
2013,05,25,13,32,14.70
2013,05,25,13,33,14.70
2013,05,25,13,34,14.70
2013,05,25,13,35,14.70
2013,05,25,13,36,14.80
2013,05,25,13,37,14.80
2013,05,25,13,38,14.80
2013,05,25,13,39,14.80
2013,05,25,13,40,14.70
2013,05,25,13,41,14.70
2013,05,25,13,42,14.60
2013,05,25,13,43,14.50
2013,05,25,13,44,14.50
2013,05,25,13,45,14.50
2013,05,25,13,46,14.40
2013,05,25,13,47,14.40
2013,05,25,13,48,14.40
2013,05,25,13,49,14.40
2013,05,25,13,50,14.40
2013,05,25,13,51,14.50
2013,05,25,13,52,14.50
2013,05,25,13,53,14.50
2013,05,25,13,54,14.50
2013,05,25,13,55,14.60
2013,05,25,13,56,14.60
2013,05,25,13,57,14.60
2013,05,25,13,58,14.60
2013,05,25,13,59,14.60
2013,05,25,14,00,14.60
2013,05,25,14,01,14.60
2013,05,25,14,02,14.70
2013,05,25,14,03,14.70
2013,05,25,14,04,14.70
2013,05,25,14,05,14.70
2013,05,25,14,06,14.70
2013,05,25,14,07,14.70
2013,05,25,14,08,14.70
2013,05,25,14,09,14.70
2013,05,25,14,10,14.60
2013,05,25,14,11,14.60
2013,05,25,14,12,14.50
2013,05,25,14,13,14.50
2013,05,25,14,14,14.40
2013,05,25,14,15,14.30
2013,05,25,14,16,14.30
2013,05,25,14,17,14.30
2013,05,25,14,18,14.30
2013,05,25,14,19,14.30
2013,05,25,14,20,14.30
2013,05,25,14,21,14.30
2013,05,25,14,22,14.30
2013,05,25,14,23,14.30
2013,05,25,14,24,14.30
2013,05,25,14,25,14.30
2013,05,25,14,26,14.30
2013,05,25,14,27,14.30
2013,05,25,14,28,14.40
2013,05,25,14,29,14.50
2013,05,25,14,30,14.50
2013,05,25,14,31,14.60
2013,05,25,14,32,14.60
2013,05,25,14,33,14.70
2013,05,25,14,34,14.80
2013,05,25,14,35,14.90
2013,05,25,14,36,15.00
2013,05,25,14,37,15.10
2013,05,25,14,38,15.20
2013,05,25,14,39,15.30
2013,05,25,14,40,15.40
2013,05,25,14,41,15.50
2013,05,25,14,42,15.50
2013,05,25,14,43,15.60
2013,05,25,14,44,15.60
2013,05,25,14,45,15.60
2013,05,25,14,46,15.70
2013,05,25,14,47,15.70
2013,05,25,14,48,15.70
2013,05,25,14,49,15.70
2013,05,25,14,50,15.60
2013,05,25,14,51,15.60
2013,05,25,14,52,15.50
2013,05,25,14,53,15.50
2013,05,25,14,54,15.40
2013,05,25,14,55,15.40
2013,05,25,14,56,15.40
2013,05,25,14,57,15.50
2013,05,25,14,58,15.50
2013,05,25,14,59,15.60
2013,05,25,15,00,15.60
2013,05,25,15,01,15.60
2013,05,25,15,02,15.60
2013,05,25,15,03,15.70
2013,05,25,15,04,15.70
2013,05,25,15,05,15.70
2013,05,25,15,06,15.70
2013,05,25,15,07,15.70
2013,05,25,15,08,15.70
2013,05,25,15,09,15.70
2013,05,25,15,10,15.70
2013,05,25,15,11,15.80
2013,05,25,15,12,15.80
2013,05,25,15,13,15.90
2013,05,25,15,14,15.90
2013,05,25,15,15,16.00
2013,05,25,15,16,16.00
2013,05,25,15,17,16.00
2013,05,25,15,18,16.00
2013,05,25,15,19,16.00
2013,05,25,15,20,16.00
2013,05,25,15,21,16.00
2013,05,25,15,22,15.90
2013,05,25,15,23,15.80
2013,05,25,15,24,15.70
2013,05,25,15,25,15.70
2013,05,25,15,26,15.70
2013,05,25,15,27,15.60
2013,05,25,15,28,15.50
2013,05,25,15,29,15.40
2013,05,25,15,30,15.40
2013,05,25,15,31,15.40
2013,05,25,15,32,15.30
2013,05,25,15,33,15.30
2013,05,25,15,34,15.30
2013,05,25,15,35,15.20
2013,05,25,15,36,15.20
2013,05,25,15,37,15.10
2013,05,25,15,38,15.10
2013,05,25,15,39,15.00
2013,05,25,15,40,14.90
2013,05,25,15,41,14.90
2013,05,25,15,42,14.80
2013,05,25,15,43,14.80
2013,05,25,15,44,14.80
2013,05,25,15,45,14.70
2013,05,25,15,46,14.70
2013,05,25,15,47,14.70
2013,05,25,15,48,14.70
2013,05,25,15,49,14.70
2013,05,25,15,50,14.80
2013,05,25,15,51,14.80
2013,05,25,15,52,14.80
2013,05,25,15,53,14.80
2013,05,25,15,54,14.80
2013,05,25,15,55,14.80
2013,05,25,15,56,14.80
2013,05,25,15,57,14.80
2013,05,25,15,58,14.80
2013,05,25,15,59,14.80
2013,05,25,16,00,14.80
2013,05,25,16,01,14.80
2013,05,25,16,02,14.90
2013,05,25,16,03,14.90
2013,05,25,16,04,14.90
2013,05,25,16,05,15.00
2013,05,25,16,06,15.00
2013,05,25,16,07,15.10
2013,05,25,16,08,15.10
2013,05,25,16,09,15.20
2013,05,25,16,10,15.20
2013,05,25,16,11,15.30
2013,05,25,16,12,15.30
2013,05,25,16,13,15.30
2013,05,25,16,14,15.30
2013,05,25,16,15,15.30
2013,05,25,16,16,15.40
2013,05,25,16,17,15.50
2013,05,25,16,18,15.50
2013,05,25,16,19,15.40
2013,05,25,16,20,15.40
2013,05,25,16,21,15.40
2013,05,25,16,22,15.40
2013,05,25,16,23,15.40
2013,05,25,16,24,15.40
2013,05,25,16,25,15.40
2013,05,25,16,26,15.30
2013,05,25,16,27,15.30
2013,05,25,16,28,15.30
2013,05,25,16,29,15.20
2013,05,25,16,30,15.10
2013,05,25,16,31,15.00
2013,05,25,16,32,14.80
2013,05,25,16,33,14.70
2013,05,25,16,34,14.70
2013,05,25,16,35,14.60
2013,05,25,16,36,14.50
2013,05,25,16,37,14.40
2013,05,25,16,38,14.40
2013,05,25,16,39,14.40
2013,05,25,16,40,14.40
2013,05,25,16,41,14.40
2013,05,25,16,42,14.30
2013,05,25,16,43,14.30
2013,05,25,16,44,14.20
2013,05,25,16,45,14.20
2013,05,25,16,46,14.20
2013,05,25,16,47,14.10
2013,05,25,16,48,14.00
2013,05,25,16,49,14.00
2013,05,25,16,50,13.90
2013,05,25,16,51,13.90
2013,05,25,16,52,13.80
2013,05,25,16,53,13.70
2013,05,25,16,54,13.60
2013,05,25,16,55,13.50
2013,05,25,16,56,13.40
2013,05,25,16,57,13.30
2013,05,25,16,58,13.30
2013,05,25,16,59,13.20
2013,05,25,17,00,13.20
2013,05,25,17,01,13.10
2013,05,25,17,02,13.10
2013,05,25,17,03,13.10
2013,05,25,17,04,13.10
2013,05,25,17,05,13.00
2013,05,25,17,06,13.00
2013,05,25,17,07,13.00
2013,05,25,17,08,13.00
2013,05,25,17,09,12.90
2013,05,25,17,10,12.90
2013,05,25,17,11,12.90
2013,05,25,17,12,12.90
2013,05,25,17,13,12.90
2013,05,25,17,14,12.90
2013,05,25,17,15,12.90
2013,05,25,17,16,12.80
2013,05,25,17,17,12.70
2013,05,25,17,18,12.70
2013,05,25,17,19,12.70
2013,05,25,17,20,12.70
2013,05,25,17,21,12.70
2013,05,25,17,22,12.70
2013,05,25,17,23,12.70
2013,05,25,17,24,12.70
2013,05,25,17,25,12.70
2013,05,25,17,26,12.70
2013,05,25,17,27,12.70
2013,05,25,17,28,12.60
2013,05,25,17,29,12.60
2013,05,25,17,30,12.60
2013,05,25,17,31,12.60
2013,05,25,17,32,12.60
2013,05,25,17,33,12.60
2013,05,25,17,34,12.60
2013,05,25,17,35,12.50
2013,05,25,17,36,12.50
2013,05,25,17,37,12.50
2013,05,25,17,38,12.50
2013,05,25,17,39,12.60
2013,05,25,17,40,12.60
2013,05,25,17,41,12.60
2013,05,25,17,42,12.60